Temperature
-0 0 0 -0 -1 -2 -2 -1 -1 -0 -0 -1 -1 -2 -2 -2 -3 -3 -3 -3 -4 -4 -4 -4 -4 -4 -4 -4 -3 -3 -3 -3 -2 -2 -2 -2 -2 -2 -2 -2 -2 -2 -1 -1
-1 -0 -1 -1 -1 -2 -2 -2 -2 -1 -1 -1 -1 -2 -2 -3 -3 -4 -4 -4 -4 -4 -4 -4 -4 -4 -4 -4 -4 -4 -3 -3 -3 -3 -3 -3 -3 -2 -2 -2 -2 -2 -2 -2
-1 -1 -1 -2 -2 -2 -2 -2 -2 -2 -2 -2 -3 -3 -3 -3 -4 -4 -4 -4 -5 -5 -5 -5 -5 -5 -5 -5 -5 -4 -4 -4 -3 -3 -3 -3 -3 -3 -3 -3 -3 -2 -2 -2
-2 -2 -2 -1 -2 -2 -3 -3 -3 -3 -3 -3 -3 -3 -3 -3 -4 -5 -5 -5 -5 -5 -5 -5 -5 -5 -5 -5 -5 -4 -4 -4 -4 -4 -4 -4 -4 -3 -3 -3 -3 -3 -3 -3
-2 -2 -1 -1 -3 -3 -3 -4 -4 -4 -4 -4 -4 -4 -4 -4 -4 -5 -5 -5 -6 -6 -6 -6 -6 -6 -6 -5 -5 -5 -5 -4 -4 -4 -4 -4 -4 -4 -4 -4 -3 -3 -3 -3
-2 -2 -2 -2 -3 -3 -4 -4 -4 -4 -4 -4 -5 -5 -5 -4 -5 -5 -6 -6 -6 -6 -6 -6 -6 -6 -6 -6 -6 -5 -5 -5 -5 -5 -5 -5 -5 -4 -4 -4 -4 -4 -4 -4
-3 -3 -3 -4 -4 -3 -3 -3 -3 -4 -4 -5 -5 -6 -5 -6 -6 -6 -6 -6 -6 -7 -6 -6 -6 -6 -6 -6 -6 -6 -5 -5 -5 -5 -5 -5 -5 -5 -5 -5 -5 -5 -5 -4
-4 -3 -3 -5 -5 -5 -4 -4 -4 -4 -5 -5 -5 -6 -6 -6 -6 -7 -7 -7 -7 -7 -7 -7 -7 -7 -7 -6 -6 -6 -6 -5 -5 -5 -5 -5 -5 -5 -5 -5 -5 -5 -5 -5
-4 -4 -4 -5 -5 -4 -4 -5 -5 -5 -5 -6 -6 -6 -7 -7 -7 -7 -7 -7 -8 -8 -8 -7 -7 -7 -7 -7 -6 -6 -6 -6 -6 -5 -5 -6 -6 -6 -6 -6 -6 -6 -6 -6
-5 -5 -5 -5 -5 -5 -5 -5 -5 -6 -6 -6 -7 -7 -7 -7 -8 -8 -8 -8 -8 -8 -8 -8 -8 -8 -7 -7 -7 -7 -6 -6 -6 -6 -6 -6 -6 -6 -6 -6 -6 -6 -6 -6
-6 -7 -6 -5 -5 -5 -6 -6 -6 -6 -7 -7 -7 -7 -8 -8 -8 -8 -8 -8 -8 -8 -8 -9 -8 -8 -8 -8 -7 -7 -7 -7 -7 -7 -7 -6 -6 -6 -7 -6 -7 -7 -7 -7
-6 -6 -7 -6 -6 -6 -6 -6 -7 -7 -7 -7 -8 -8 -8 -8 -8 -9 -9 -9 -9 -9 -9 -9 -9 -9 -9 -8 -8 -8 -8 -8 -8 -7 -7 -7 -7 -7 -7 -7 -7 -7 -7 -7
-6 -6 -6 -6 -6 -7 -7 -7 -7 -8 -8 -8 -8 -8 -9 -9 -9 -9 -9 -9 -9 -9 -9 -9 -9 -9 -9 -9 -9 -9 -8 -8 -8 -8 -8 -8 -8 -8 -7 -7 -7 -7 -7 -7
-7 -7 -7 -7 -7 -7 -7 -8 -8 -8 -8 -9 -9 -9 -9 -9 -9 -9 -9 -9 -9 -9 -10 -10 -10 -9 -9 -9 -9 -9 -9 -9 -9 -9 -8 -8 -8 -8 -8 -8 -8 -7 -7 -7
-8 -8 -8 -8 -8 -8 -8 -8 -8 -9 -9 -9 -9 -9 -9 -9 -10 -10 -10 -10 -10 -10 -10 -10 -10 -10 -10 -10 -9 -9 -9 -9 -9 -9 -9 -9 -9 -9 -9 -9 -9 -8 -7 -7
-9 -8 -8 -9 -9 -9 -9 -9 -9 -9 -9 -9 -10 -10 -10 -10 -10 -10 -10 -10 -10 -10 -10 -10 -10 -10 -10 -10 -10 -10 -9 -9 -10 -10 -10 -10 -9 -9 -9 -9 -9 -9 -8 -8
-9 -9 -9 -9 -9 -9 -10 -10 -10 -10 -10 -10 -10 -10 -10 -10 -10 -10 -10 -10 -11 -11 -11 -11 -11 -10 -10 -10 -10 -10 -10 -10 -10 -10 -10 -10 -10 -10 -10 -10 -10 -9 -9 -9
-9 -9 -9 -9 -10 -10 -10 -10 -10 -10 -10 -10 -11 -11 -11 -11 -11 -11 -11 -11 -11 -11 -11 -11 -11 -11 -11 -11 -11 -10 -10 -10 -10 -10 -10 -10 -11 -10 -10 -10 -10 -10 -9 -9
-10 -10 -10 -10 -10 -10 -10 -10 -10 -10 -11 -11 -11 -11 -11 -11 -11 -11 -11 -11 -11 -11 -11 -11 -11 -11 -11 -11 -11 -11 -11 -11 -11 -11 -11 -11 -11 -11 -11 -11 -11 -10 -10 -10
-10 -10 -10 -10 -10 -10 -10 -11 -11 -11 -11 -11 -11 -11 -11 -11 -11 -11 -12 -12 -12 -12 -12 -12 -11 -11 -11 -11 -11 -11 -11 -11 -11 -11 -11 -11 -11 -11 -11 -11 -11 -11 -11 -10
-10 -10 -10 -10 -11 -11 -11 -11 -11 -11 -11 -11 -12 -12 -12 -12 -12 -12 -12 -12 -12 -12 -12 -12 -12 -12 -12 -12 -12 -12 -12 -12 -12 -12 -12 -12 -12 -11 -11 -11 -11 -11 -11 -11
-11 -11 -11 -11 -11 -11 -11 -11 -12 -12 -12 -12 -12 -12 -12 -12 -12 -12 -12 -13 -12 -12 -12 -12 -12 -12 -12 -12 -12 -12 -12 -12 -12 -12 -12 -12 -12 -12 -12 -12 -12 -12 -12 -11
-11 -11 -11 -11 -12 -12 -12 -12 -12 -12 -12 -12 -12 -12 -13 -13 -13 -13 -13 -13 -13 -13 -13 -12 -12 -12 -12 -12 -12 -12 -12 -12 -12 -12 -12 -12 -12 -12 -12 -12 -12 -12 -12 -12
-11 -12 -12 -12 -12 -12 -12 -12 -13 -13 -13 -13 -13 -13 -13 -13 -13 -13 -13 -13 -13 -13 -13 -13 -13 -13 -13 -13 -12 -12 -12 -12 -13 -13 -13 -13 -13 -13 -13 -13 -13 -13 -12 -12
-12 -12 -12 -13 -13 -13 -13 -13 -13 -13 -13 -13 -13 -13 -13 -13 -13 -13 -13 -13 -13 -13 -13 -13 -13 -13 -13 -13 -13 -13 -13 -13 -13 -13 -13 -13 -13 -13 -13 -13 -13 -13 -13 -13
-12 -13 -13 -13 -13 -13 -13 -14 -14 -14 -14 -14 -14 -14 -14 -14 -14 -14 -14 -14 -14 -14 -14 -14 -13 -13 -13 -13 -13 -13 -13 -13 -13 -13 -13 -13 -13 -13 -13 -13 -13 -13 -13 -13
-13 -13 -13 -13 -14 -14 -14 -14 -14 -14 -14 -14 -14 -14 -14 -14 -14 -14 -14 -14 -14 -14 -14 -14 -14 -14 -14 -14 -14 -14 -14 -14 -14 -14 -14 -14 -14 -14 -14 -14 -13 -14 -13 -13
Wind_Speed
6 6 4 5 6 7 9 9 8 7 7 7 4 3 3 3 3 3 4 5 5 5 5 5 5 5 5 5 5 5 5 5 5 4 4 4 5 5 5 6 6 6 6 6
5 5 5 6 8 9 9 8 9 9 9 4 3 2 3 3 4 5 5 5 6 7 6 6 5 6 5 5 5 5 5 5 5 4 4 4 5 5 5 5 5 6 6 6
4 2 4 6 8 8 5 6 6 9 6 2 3 4 4 5 4 5 6 6 7 7 7 6 6 6 6 6 5 5 5 5 4 4 4 4 5 5 5 5 5 6 6 6
2 1 6 5 1 3 4 5 5 4 3 2 3 5 5 3 3 5 6 6 7 7 7 6 6 6 6 6 6 5 5 5 4 4 4 5 5 5 5 5 5 6 7 7
2 4 6 2 0 1 3 5 3 4 4 4 4 4 3 2 2 4 5 6 6 6 6 6 7 6 6 6 5 5 5 5 5 4 5 5 6 6 5 5 6 6 7 7
3 4 4 2 1 1 1 3 2 1 2 2 3 3 4 5 5 6 6 5 5 6 6 6 7 6 6 6 5 5 5 5 5 5 5 6 6 6 5 5 6 7 7 7
5 5 4 1 1 1 1 4 2 0 1 1 2 4 5 6 6 6 6 6 6 6 6 6 7 6 6 6 6 6 5 5 5 5 5 6 6 5 5 6 6 6 7 7
3 4 5 1 2 1 3 2 2 1 2 3 4 5 5 6 6 6 6 7 7 7 7 7 7 6 7 7 7 6 5 5 5 5 5 5 5 5 5 5 6 6 6 6
4 4 1 1 1 1 1 1 2 2 2 3 4 5 6 6 6 6 6 6 6 7 8 7 7 6 7 8 7 6 5 5 5 5 5 4 4 4 5 4 4 4 5 6
3 4 3 2 2 2 1 1 2 2 2 2 4 5 6 6 6 6 6 6 6 7 7 8 8 7 7 8 7 6 6 6 5 5 5 4 4 4 4 4 4 5 5 6
4 4 3 2 2 3 3 2 3 3 3 3 3 5 5 5 6 6 6 6 6 6 7 8 8 8 8 8 7 7 6 6 5 4 4 4 4 4 4 4 5 6 5 6
4 2 2 4 3 3 3 3 3 3 4 3 3 4 5 5 5 5 6 6 6 6 7 8 8 8 8 8 7 7 6 6 5 4 4 4 4 5 6 7 9 10 10 9
3 3 3 4 3 2 2 3 3 3 3 4 4 3 4 5 5 5 5 6 6 6 7 7 7 8 8 8 8 7 6 6 5 5 5 5 5 5 6 7 8 9 9 10
3 3 3 2 3 3 3 3 3 3 3 3 3 4 4 4 5 5 6 6 6 6 7 7 7 8 8 7 8 7 7 7 6 5 5 5 5 5 5 5 6 5 7 9
3 3 3 3 2 3 3 3 4 4 4 4 4 4 4 5 6 6 6 6 7 7 7 6 7 8 8 7 7 7 6 5 5 5 5 5 5 5 4 5 5 5 5 6
4 3 2 2 3 3 3 3 4 4 5 5 5 5 5 5 6 6 6 6 6 7 7 7 8 8 8 7 7 6 6 9 8 6 5 5 5 4 4 5 5 5 5 5
2 3 3 4 4 4 4 4 4 4 5 5 6 6 5 6 6 6 6 6 5 6 6 7 8 9 7 6 6 6 6 7 9 6 5 5 5 5 5 5 5 5 5 6
2 3 3 3 3 4 5 4 4 4 5 5 5 5 5 5 6 7 7 7 6 6 6 6 7 7 7 7 6 5 5 5 5 5 5 5 5 5 5 5 5 5 5 6
2 2 3 3 3 3 3 4 4 4 5 5 5 5 5 5 5 6 6 6 7 7 7 7 11 8 7 8 8 4 5 5 5 5 5 6 6 5 5 5 5 5 5 5
3 3 3 4 4 3 3 3 4 4 4 4 4 5 5 5 5 5 5 5 4 4 6 8 8 7 7 8 9 4 5 5 5 5 5 4 4 5 5 5 5 5 5 5
3 3 3 4 4 3 3 3 3 4 4 3 4 4 5 6 5 4 5 5 5 6 7 10 7 6 6 7 8 5 4 4 4 4 5 5 5 5 5 5 5 5 5 5
3 3 4 4 3 4 3 3 3 4 4 4 4 4 5 6 6 5 4 4 6 10 8 6 6 8 9 9 5 4 4 4 4 4 4 4 4 4 5 5 5 5 5 5
3 3 3 3 3 3 4 3 3 3 4 4 4 5 5 5 4 5 6 5 5 10 8 5 9 12 12 7 4 4 5 4 4 4 4 4 4 4 4 5 5 5 5 5
2 2 3 2 2 2 3 4 3 3 3 4 4 4 4 4 4 3 3 8 11 11 6 9 12 12 11 5 4 4 4 4 4 4 4 4 4 4 4 4 5 5 5 5
2 2 2 2 2 2 3 3 3 3 4 3 4 4 3 3 3 5 5 6 10 10 6 9 12 12 7 5 5 5 4 4 5 4 4 4 4 4 4 4 4 5 5 5
2 2 2 2 2 2 2 3 3 3 3 4 4 4 4 3 4 4 5 6 7 9 7 6 7 8 5 5 5 5 5 5 6 5 5 4 5 5 5 5 5 5 5 5
2 1 1 2 2 2 2 3 3 4 4 4 5 5 5 5 4 5 5 5 6 6 5 5 5 5 5 5 5 5 4 4 4 4 4 4 4 4 5 5 5 5 5 5
Wind_Direction
270 286 271 249 233 211 216 226 235 255 261 272 283 304 308 313 315 310 311 315 315 312 310 312 312 309 305 299 291 285 277 268 260 255 251 255 257 252 254 253 254 251 251 251
273 265 263 269 253 230 231 241 250 269 277 279 307 325 320 313 307 304 307 310 313 313 310 309 306 302 301 297 295 288 276 270 266 253 249 252 257 256 253 255 256 258 257 254
263 290 302 262 235 214 220 225 219 242 258 332 328 308 297 294 295 301 305 308 308 306 304 306 304 301 294 290 288 285 282 279 271 258 255 259 263 265 261 258 257 259 259 255
259 296 244 242 62 177 211 249 233 246 277 310 305 300 291 286 298 306 308 308 307 306 307 307 306 304 298 292 285 282 282 277 281 275 264 266 264 263 262 264 261 261 260 254
227 248 264 259 216 156 206 272 244 238 277 312 337 330 300 324 336 308 304 301 301 304 309 312 311 309 305 297 288 284 281 278 276 276 273 268 266 265 264 267 268 265 262 257
231 248 249 267 0 6 95 278 292 208 263 310 359 320 301 345 339 326 321 319 318 316 315 315 315 314 306 300 291 287 286 283 280 274 271 266 263 265 264 264 267 269 270 263
237 247 264 309 325 75 178 266 326 281 255 280 275 263 294 321 326 325 326 327 326 320 316 314 317 319 313 313 303 297 297 291 284 275 269 267 265 265 264 264 262 262 268 269
213 227 254 45 83 175 242 320 349 346 320 304 296 302 309 315 322 327 329 330 329 326 320 320 322 320 316 313 312 311 305 299 293 287 281 277 269 269 265 259 257 261 267 270
208 220 265 169 219 263 352 327 324 321 314 306 302 302 310 315 318 319 322 323 326 323 320 324 326 325 316 315 318 318 313 306 303 299 293 288 278 273 271 265 260 266 266 271
260 266 270 252 298 341 347 301 310 311 307 303 295 302 308 311 314 317 318 319 324 324 323 324 328 329 324 322 324 322 318 314 306 304 301 296 285 275 269 269 268 267 267 271
254 286 315 294 298 308 315 321 320 322 316 302 300 300 299 304 308 312 315 318 320 320 318 321 327 329 329 330 331 326 322 320 319 314 307 304 302 294 289 277 271 271 267 267
250 271 255 282 305 319 313 312 313 319 321 316 295 294 303 303 305 309 313 316 320 320 319 320 325 326 329 334 336 331 327 326 326 324 319 313 309 309 304 295 298 292 284 282
261 298 280 284 314 332 316 314 316 310 303 309 309 298 301 303 309 312 315 318 318 316 316 319 323 325 329 333 335 332 326 324 321 321 320 318 315 311 313 319 313 307 304 300
293 320 305 313 322 337 337 332 332 327 320 315 314 315 311 310 316 318 315 314 315 317 318 321 323 322 325 328 329 326 322 318 318 317 318 317 315 311 308 311 316 318 316 312
317 320 292 316 340 344 344 345 340 330 332 334 334 325 320 316 315 314 314 319 322 321 321 324 323 321 325 326 324 322 321 320 317 318 319 319 317 315 314 313 313 314 319 321
316 321 324 328 325 331 339 335 323 318 324 324 324 322 317 312 311 312 317 323 322 320 320 323 321 321 324 324 324 323 321 321 326 326 327 326 326 326 324 322 320 319 320 321
319 311 314 314 313 315 311 307 304 307 313 314 314 315 316 317 319 320 322 324 317 311 315 320 319 321 324 324 323 321 322 323 327 330 330 328 328 327 327 324 320 319 318 321
285 286 282 284 293 303 311 317 318 316 312 310 313 316 317 317 316 317 321 324 323 320 320 320 319 326 327 325 322 320 320 321 327 328 328 328 330 331 329 327 325 324 328 332
332 326 328 325 313 304 307 312 314 312 312 315 316 315 313 313 314 316 320 324 324 324 326 329 332 335 327 324 326 319 322 325 328 329 328 328 333 335 333 331 330 333 337 338
345 342 337 331 327 319 317 318 316 315 316 320 322 322 323 322 321 320 319 316 312 309 318 327 331 326 323 324 332 330 328 328 330 332 333 333 332 333 335 336 338 339 341 343
334 334 334 329 322 321 315 315 316 314 319 324 321 316 316 319 321 321 323 321 322 326 330 330 332 326 326 332 334 331 327 328 330 331 331 330 330 333 338 342 343 341 341 343
325 326 325 325 328 329 328 327 322 319 324 325 324 321 322 323 325 321 308 301 317 332 338 328 325 329 336 337 333 328 325 325 326 326 327 328 332 334 335 338 337 337 339 342
317 319 325 328 325 321 329 333 327 325 321 320 321 320 317 315 319 321 321 324 326 331 335 324 329 334 338 344 339 335 334 334 332 331 330 329 330 328 327 330 331 333 336 339
320 327 323 320 325 334 338 336 334 327 316 311 311 312 313 317 319 314 305 322 332 333 332 328 335 337 341 346 340 338 336 334 332 330 329 330 330 328 327 328 327 329 332 333
317 317 324 335 338 333 327 330 332 330 329 326 323 324 320 312 308 316 321 322 328 333 331 331 335 338 343 337 337 334 333 329 327 329 332 332 330 328 325 325 325 327 330 331
321 317 313 309 309 318 329 332 330 329 332 331 330 329 327 323 314 314 319 321 322 329 331 325 326 331 333 331 330 329 328 328 330 333 331 328 328 328 327 327 325 326 325 325
335 336 336 339 341 341 334 329 324 324 326 323 320 323 325 325 324 323 322 323 324 324 323 322 323 323 324 325 325 323 321 321 321 322 323 322 321 320 322 322 319 316 316 316
Height
1490 1487 1488 1488 1490 1492 1494 1491 1490 1482 1480 1477 1476 1477 1476 1476 1475 1474 1473 1471 1470 1469 1467 1465 1463 1461 1459 1457 1456 1455 1454 1453 1452 1452 1452 1452 1452 1453 1453 1453 1454 1454 1455 1455
1491 1487 1487 1487 1485 1486 1487 1487 1485 1481 1479 1475 1475 1475 1475 1474 1473 1472 1471 1469 1467 1466 1463 1461 1459 1457 1455 1453 1451 1450 1449 1448 1448 1447 1447 1447 1447 1447 1447 1448 1448 1449 1449 1449
1488 1488 1487 1485 1479 1480 1481 1479 1480 1480 1477 1474 1474 1474 1473 1472 1471 1470 1468 1467 1464 1462 1460 1457 1455 1453 1450 1448 1447 1445 1444 1443 1443 1443 1442 1443 1443 1442 1442 1442 1442 1443 1443 1443
1489 1491 1489 1476 1473 1473 1476 1476 1475 1474 1474 1473 1473 1472 1471 1470 1469 1467 1466 1463 1461 1459 1456 1454 1451 1449 1447 1444 1442 1441 1439 1439 1438 1438 1437 1437 1437 1437 1437 1437 1437 1437 1437 1438
1489 1486 1479 1474 1474 1474 1476 1475 1472 1472 1472 1472 1471 1470 1468 1467 1466 1465 1463 1461 1458 1456 1453 1450 1447 1445 1442 1440 1438 1436 1435 1434 1434 1433 1432 1432 1432 1432 1432 1432 1432 1431 1432 1432
1487 1484 1480 1474 1474 1472 1475 1476 1470 1470 1470 1470 1470 1471 1467 1465 1463 1462 1460 1457 1455 1452 1449 1446 1444 1441 1438 1435 1433 1432 1431 1430 1430 1429 1428 1428 1427 1427 1427 1427 1427 1427 1426 1426
1486 1483 1478 1476 1473 1473 1479 1474 1469 1468 1469 1469 1469 1469 1466 1463 1461 1459 1457 1455 1452 1449 1446 1443 1441 1438 1435 1432 1430 1428 1427 1426 1425 1424 1424 1423 1423 1422 1422 1422 1422 1421 1421 1421
1484 1483 1480 1475 1474 1476 1474 1470 1469 1468 1468 1468 1466 1465 1463 1461 1459 1457 1454 1452 1449 1446 1443 1441 1438 1435 1432 1429 1427 1425 1424 1422 1421 1420 1420 1419 1418 1418 1418 1418 1417 1416 1415 1415
1479 1478 1474 1472 1471 1471 1470 1469 1468 1467 1467 1466 1464 1462 1460 1458 1456 1454 1452 1449 1447 1444 1441 1438 1436 1433 1430 1427 1425 1422 1420 1419 1418 1416 1415 1415 1414 1413 1413 1412 1411 1411 1411 1410
1476 1473 1471 1471 1470 1470 1469 1468 1467 1466 1465 1463 1461 1460 1458 1456 1454 1452 1450 1447 1445 1442 1439 1436 1433 1430 1428 1425 1422 1420 1418 1416 1414 1413 1412 1411 1411 1410 1408 1407 1407 1406 1406 1405
1475 1472 1470 1469 1468 1468 1467 1466 1465 1464 1463 1461 1459 1457 1455 1453 1451 1450 1447 1445 1443 1440 1437 1434 1431 1428 1426 1423 1420 1418 1415 1413 1411 1410 1409 1407 1406 1405 1404 1403 1403 1403 1402 1401
1473 1470 1470 1468 1467 1466 1465 1464 1463 1461 1460 1458 1457 1455 1453 1451 1449 1447 1445 1443 1441 1438 1435 1432 1429 1426 1423 1421 1418 1415 1412 1410 1408 1406 1405 1403 1402 1401 1400 1400 1399 1398 1397 1397
1469 1468 1467 1466 1465 1464 1463 1462 1461 1460 1458 1456 1454 1453 1451 1449 1447 1445 1443 1441 1438 1436 1433 1430 1427 1424 1421 1419 1416 1413 1411 1408 1406 1404 1402 1401 1399 1398 1396 1395 1394 1393 1392 1391
1467 1467 1465 1464 1464 1462 1461 1460 1459 1457 1456 1454 1452 1451 1449 1447 1445 1443 1441 1439 1436 1434 1431 1428 1425 1423 1420 1417 1415 1412 1410 1408 1406 1403 1401 1399 1398 1396 1394 1392 1389 1388 1388 1387
1465 1465 1464 1462 1461 1460 1459 1458 1456 1455 1454 1452 1450 1449 1447 1445 1442 1440 1439 1436 1434 1432 1429 1426 1424 1421 1419 1416 1413 1411 1408 1406 1404 1402 1400 1398 1396 1394 1392 1390 1388 1386 1384 1383
1462 1462 1461 1460 1459 1458 1457 1456 1455 1453 1452 1450 1448 1447 1445 1443 1441 1438 1436 1434 1432 1429 1427 1424 1422 1420 1417 1415 1412 1409 1407 1405 1403 1400 1398 1396 1394 1392 1390 1388 1386 1384 1382 1381
1460 1458 1458 1457 1456 1456 1455 1454 1453 1451 1450 1448 1446 1445 1443 1440 1438 1436 1434 1432 1430 1428 1425 1423 1420 1418 1416 1413 1411 1408 1406 1403 1401 1399 1397 1395 1393 1390 1388 1387 1385 1383 1381 1380
1458 1458 1457 1456 1455 1454 1452 1451 1450 1449 1448 1446 1444 1443 1440 1438 1436 1434 1432 1430 1428 1426 1424 1421 1419 1417 1414 1412 1409 1407 1404 1402 1400 1398 1396 1394 1392 1390 1387 1385 1384 1382 1379 1378
1456 1455 1455 1454 1453 1452 1451 1449 1448 1447 1446 1444 1442 1441 1439 1437 1435 1432 1430 1428 1426 1423 1421 1419 1417 1415 1412 1410 1408 1405 1403 1401 1399 1397 1395 1393 1391 1389 1387 1385 1383 1381 1379 1377
1454 1454 1453 1452 1451 1450 1449 1447 1446 1445 1444 1442 1440 1439 1437 1435 1433 1431 1429 1427 1425 1423 1420 1418 1416 1413 1411 1408 1406 1404 1402 1400 1398 1396 1394 1392 1390 1388 1386 1384 1382 1380 1379 1377
1453 1452 1451 1450 1449 1448 1447 1446 1444 1443 1442 1440 1439 1437 1435 1433 1432 1430 1427 1425 1424 1421 1419 1416 1414 1412 1409 1407 1405 1403 1401 1399 1397 1395 1393 1391 1389 1387 1386 1384 1382 1380 1378 1376
1452 1451 1450 1449 1447 1446 1445 1444 1442 1441 1440 1439 1437 1435 1434 1432 1430 1428 1427 1425 1422 1420 1417 1415 1412 1410 1408 1406 1404 1402 1400 1398 1396 1394 1392 1390 1389 1387 1385 1383 1381 1379 1377 1375
1451 1450 1448 1447 1446 1444 1443 1442 1441 1440 1438 1437 1436 1434 1432 1431 1429 1427 1425 1423 1420 1418 1416 1413 1411 1409 1407 1405 1403 1401 1399 1397 1395 1393 1391 1390 1388 1386 1384 1382 1381 1379 1377 1375
1449 1448 1447 1446 1444 1443 1441 1440 1439 1438 1437 1436 1434 1433 1431 1429 1427 1426 1424 1421 1419 1417 1414 1412 1410 1408 1406 1403 1401 1399 1397 1396 1394 1392 1390 1388 1387 1385 1383 1381 1379 1377 1376 1374
1448 1447 1445 1444 1443 1442 1440 1439 1438 1437 1435 1434 1433 1431 1430 1428 1426 1424 1422 1419 1417 1415 1413 1411 1409 1406 1404 1402 1400 1398 1396 1394 1393 1391 1389 1387 1385 1383 1381 1379 1378 1376 1374 1372
1446 1445 1444 1443 1442 1441 1440 1438 1437 1435 1434 1432 1431 1429 1428 1426 1424 1422 1420 1418 1415 1413 1411 1409 1407 1405 1402 1400 1399 1397 1395 1393 1391 1389 1387 1385 1383 1381 1380 1378 1376 1374 1373 1371
1445 1444 1443 1442 1441 1440 1439 1437 1436 1434 1433 1431 1429 1428 1426 1424 1422 1420 1418 1415 1413 1411 1409 1407 1405 1403 1401 1399 1397 1395 1393 1391 1390 1388 1386 1384 1382 1380 1378 1376 1374 1373 1371 1370